(40) Harmonia
ephemeris date magn radius delta ra dec elong phase
Today25 Aug 202611.52.368 AU3.355 AU10h56m+09°51'10.5°4.5°
Opposition17 May 20279.32.329 AU1.320 AU15h43m-15°01'175.3°2.0°
(40) Harmonia - 2026-08-25
astro.vanbuitenen.nl


 
-1 year
-1 month
-1 day
Now
+1 day
+1 month
+1 year

The interactive orbit chart above shows the body's path through the solar system and its position at the given date. Green and blue lines are shown perpendicular to the ecliptic plane: Green if the path is above the ecliptic plane, blue if it is below. (Left-click and drag to rotate the view; Right-click and drag to move the view; Use scroll wheel to zoom in our out.)

The orbital elements of Harmonia are:

            e (Eccentricity)                : 0.0466746
            a (Semimajor axis)              : 2.2677290
            i (Inclination)                 : 4.25501
            Ω (Longitude of ascending node) : 94.15164
            ω (Argument of perihelion)      : 269.93175
            M (Mean anomaly)                : 137.88788
            Epoch                           : 2026 Jun 09

            L (Longitude of perihelion)     : 184.08320
            B (Latitude of perihelion)      : -4.25501
            P (Orbital period in years)     : 3.41            
        

The light curve chart below shows the estimated development of the minor planet's magnitude.


The all-sky chart below shows the path of the minor planet over the same period as the light curve. The current position is marked yellow.





The following chart shows the path of the minor planet in the next few days. The field of view is optimized for (~10x50) binoculars and finderscopes.




Ephemerides:
Date       Time       RA (2000)    DEC (2000)    delta   radius  elong  phase   PA    magn
2026-08-25 00:00 UT   10 56 22.4   +09 51 43     3.355    2.368   10.5    4.5    97   11.5 
2026-08-25 06:23 UT   10 56 50.8   +09 48 52     3.355    2.368   10.4    4.4    97   11.5 
2026-08-26 00:00 UT   10 58 09.0   +09 40 59     3.357    2.368   10.0    4.3    96   11.5 
2026-08-27 00:00 UT   10 59 55.6   +09 30 14     3.359    2.368    9.6    4.1    95   11.5 
2026-08-28 00:00 UT   11 01 42.2   +09 19 27     3.360    2.368    9.1    3.9    94   11.4 
2026-08-29 00:00 UT   11 03 28.7   +09 08 39     3.362    2.368    8.6    3.7    93   11.4 
2026-08-30 00:00 UT   11 05 15.1   +08 57 49     3.364    2.369    8.2    3.5    92   11.4 
2026-08-31 00:00 UT   11 07 01.6   +08 46 58     3.365    2.369    7.7    3.3    91   11.4 
2026-09-01 00:00 UT   11 08 47.9   +08 36 05     3.367    2.369    7.2    3.1    90   11.4 
2026-09-02 00:00 UT   11 10 34.2   +08 25 11     3.368    2.369    6.8    2.9    88   11.4 
2026-09-03 00:00 UT   11 12 20.5   +08 14 16     3.369    2.369    6.4    2.7    86   11.4 
2026-09-04 00:00 UT   11 14 06.7   +08 03 20     3.370    2.369    5.9    2.5    84   11.4 
2026-09-05 00:00 UT   11 15 52.9   +07 52 22     3.371    2.369    5.5    2.3    81   11.4 
2026-09-06 00:00 UT   11 17 39.1   +07 41 24     3.372    2.370    5.1    2.2    79   11.3 
2026-09-07 00:00 UT   11 19 25.2   +07 30 24     3.373    2.370    4.7    2.0    75   11.3 
2026-09-08 00:00 UT   11 21 11.3   +07 19 23     3.373    2.370    4.3    1.8    71   11.3 
2026-09-09 00:00 UT   11 22 57.3   +07 08 22     3.374    2.370    4.0    1.7    66   11.3 
2026-09-10 00:00 UT   11 24 43.3   +06 57 19     3.374    2.370    3.6    1.5    61   11.3 
2026-09-11 00:00 UT   11 26 29.2   +06 46 16     3.375    2.370    3.4    1.4    54   11.3 


    Terminology:
            
    delta:  distance between minor planet and earth in AU
    radius: distance between minor planet and sun in AU
    magn:   magnitude (brightness) estimate    
    ra:     right ascension in hours (24h = 360deg)
    dec:    declination in degrees
    elong:  elongation in degrees (angle sun-earth-minor planet)    
    phase:  phase angle in degrees (angle sun-minor planet-earth)        
    AU:     Astronomical Unit (mean distance between earth and sun: 149597870.7 km
    

Orbital elements provided by the MPC (Minor Planet Center).
Calculations by a modified version of AAPlus, a C# implementation of the AA+ project by PJ Naughter from the algorithms presented in the book "Astronomical Algorithms" by Jean Meeus.
NGC2000 dso catalog and star labels from VizieR as provided by the Strasbourg astronomical Data Center.
Tycho2 catalog from the ESO archive.